#timestamp,LO_Frequency,Hit,StdDev 
1457964015.7,286047005.6,N
1457964035.5,286047002.2,N
1457964055.3,286047003.9,N
1457964075.2,286047001.7,N
1457964095.9,286047002.7,N
1457964115.7,286047001.6,N
1457964135.5,286047004.8,N
1457964155.4,286047003.7,N
1457964175.2,286047000.6,N
1457964195.0,286047000.6,N
1457964195.9,286047000.6,N
1457964215.8,286046999.3,N
1457964235.6,286046998.9,N
1457964255.4,286047000.1,N
1457964275.3,286046999.9,N
1457964295.1,286047000.1,N
1457964315.8,286046999.5,N
1457964335.7,286046998.1,N
1457964355.5,286047000.3,N
1457964375.3,286046998.4,N
1457964395.2,286046997.9,N
1457964415.9,286046999.3,N
1457964435.7,286046995.6,N
1457964455.6,286046994.7,N
1457964475.4,286046993.4,N
1457964495.2,286046997.0,N
1457964515.0,286046995.3,N
1457964516.0,286046995.3,N
1457964535.8,286046997.9,N
1457964555.6,286046999.1,N
1457964575.4,286046999.1,N
1457964595.3,286046998.1,N
1457964615.1,286046999.0,N
1457964635.8,286046997.4,N
1457964655.7,286046995.4,N
1457964675.5,286046996.7,N
1457964695.3,286046995.5,N
1457964715.2,286046993.6,N
1457964735.9,286046994.5,N
1457964755.7,286046993.3,Y
1457964775.6,286046995.7,P
1457964795.4,286046997.1,N
1457964815.2,286047001.0,N
1457964835.1,286046999.7,N
1457964836.0,286046999.7,N
1457964855.8,286047002.1,N
1457964875.6,286047000.3,N
1457964895.5,286047003.8,N
1457964915.3,286047001.7,N
1457964935.1,286047002.0,N
1457964955.8,286047005.2,N
1457964975.7,286047004.4,N
1457964995.5,286047001.9,N
1457965015.3,286047001.8,N
1457965035.2,286047002.1,N
1457965055.9,286046997.3,N
1457965075.7,286047001.1,N
1457965095.6,286047004.7,N
1457965115.4,286047003.6,N
1457965135.2,286047001.9,N
1457965155.1,286047001.2,N
1457965156.0,286047001.2,N
1457965175.8,286047002.8,N
1457965195.6,286047000.9,N
1457965215.5,286047001.0,N
1457965235.3,286047001.9,N
1457965255.1,286047006.9,Y
1457965275.9,286046999.7,P
1457965295.7,286047007.6,P
1457965315.5,286047007.1,N
1457965335.3,286047006.8,N
1457965355.2,286047005.0,N
1457965375.0,286047006.0,N
1457965375.9,286047006.0,N
1457965395.7,286047003.1,N
1457965415.6,286047004.8,N
1457965435.4,286047005.4,N
1457965455.2,286047002.9,N
1457965475.1,286047001.6,N
1457965476.0,286047001.6,N
1457965495.8,286047004.9,N
1457965515.6,286047004.9,N
1457965535.5,286047007.7,Y
1457965555.3,286047003.2,P
1457965575.1,286046998.1,P
1457965595.9,286046997.2,N
1457965615.7,286046997.6,N
1457965635.5,286046995.2,N
1457965655.4,286047000.9,N
1457965675.2,286047001.1,N
1457965695.0,286047001.9,N
1457965695.9,286047001.9,N
1457965715.8,286046998.2,N
1457965735.6,286046999.0,N
1457965755.4,286046999.6,N
1457965775.2,286046995.6,N
1457965795.1,286046994.6,N
1457965796.0,286046994.6,N
1457965815.8,286046993.4,N
1457965835.6,286046996.2,N
1457965855.5,286046994.9,N
1457965875.3,286047001.2,N
1457965895.1,286047002.0,N
1457965915.9,286047001.8,N
1457965935.7,286047004.9,N
1457965955.5,286047009.5,N
1457965975.4,286047013.8,Y
1457965995.2,286047013.8,P
1457966015.0,286047009.3,N
1457966015.9,286047009.3,N
1457966035.8,286047009.3,N
1457966055.6,286047011.3,N
1457966075.4,286047010.1,N
1457966095.3,286047013.2,Y
1457966115.1,286047005.8,P
1457966135.8,286047005.7,P
1457966155.7,286047004.2,N
1457966175.5,286047001.8,N
1457966195.3,286047003.5,N
1457966215.2,286047005.7,N
1457966235.9,286047008.7,Y
1457966255.7,286046999.3,P
1457966275.6,286046995.2,N
1457966295.4,286046996.9,N
1457966315.2,286046996.6,N
1457966335.1,286046999.8,N
1457966336.0,286046999.8,N
1457966355.8,286047001.8,N
1457966375.6,286047000.7,N
1457966395.4,286046999.3,N
1457966415.3,286046995.2,N
1457966435.1,286046996.3,N
1457966455.8,286046991.7,N
1457966475.7,286046992.8,N
1457966495.5,286046994.1,N
1457966515.3,286046994.9,N
1457966535.2,286046997.6,N
1457966555.9,286046994.6,N
1457966575.7,286046999.6,N
1457966595.6,286046999.3,N
1457966615.4,286046999.4,N
1457966635.2,286046991.3,N
1457966655.1,286046989.2,Y
1457966656.0,286046989.2,P
1457966675.8,286046990.3,N
1457966695.6,286046989.7,N
1457966715.5,286046989.5,Y
1457966735.3,286046997.3,P
1457966755.1,286046999.6,N
1457966775.9,286046999.3,N
1457966795.7,286046999.1,N
1457966815.5,286046997.2,N
1457966835.4,286046996.9,N
1457966855.2,286047000.6,N
1457966875.0,286047000.6,N
1457966875.9,286047000.6,N
1457966895.7,286047000.1,N
1457966915.6,286047000.1,N
1457966935.4,286047001.0,N
1457966955.2,286046999.4,N
1457966975.1,286046996.9,N
1457966976.0,286046996.9,N
1457966995.8,286046996.7,N
1457967015.6,286046998.6,N
1457967035.5,286046999.2,N
1457967055.3,286046998.2,N
1457967075.1,286046996.5,N
1457967095.9,286046995.1,N
1457967115.7,286046997.0,N
1457967135.5,286046996.7,N
1457967155.4,286046995.4,N
1457967175.2,286046995.8,N
1457967195.0,286046993.3,Y
1457967195.9,286046993.3,P
1457967215.8,286046994.9,N
1457967235.6,286046995.8,N
1457967255.4,286046997.1,N
1457967275.3,286046995.5,N
1457967295.1,286046994.0,Y
1457967296.0,286046994.0,P
1457967315.8,286046994.9,P
1457967335.7,286046997.2,P
1457967355.5,286046998.9,N
1457967375.3,286047002.2,N
1457967395.2,286047002.3,N
1457967415.9,286047002.0,N
1457967435.7,286047000.7,N
1457967455.5,286046998.3,N
1457967475.4,286046997.2,N
1457967495.2,286046996.7,N
1457967515.0,286046996.2,N
1457967515.9,286046996.2,N
1457967535.8,286046996.8,N
1457967555.6,286046997.6,N
1457967575.4,286046993.3,N
1457967595.3,286046992.4,N
